Broome Arpt, Australia

12:54 AM AWST on March 26, 2017 (GMT +0800)
Broome Arpt

Weather History for 94203 - December, 2012

Change the Weather History Date:

Monday, December 10, 2012

  Actual Average Record
Temperature  
Mean Temperature 84 °F -  
Max Temperature 90 °F 93 °F - ()
Min Temperature 78 °F 80 °F - ()
Cooling Degree Days 19    
Growing Degree Days 34 (Base 50)    
Moisture  
Dew Point 77 °F    
Average Humidity 77    
Maximum Humidity 94    
Minimum Humidity 48    
Precipitation  
Precipitation 0.04 in 0.13 in - ()
Sea Level Pressure  
Sea Level Pressure 29.80 in    
Wind  
Wind Speed 5 mph ()    
Max Wind Speed 16 mph    
Max Gust Speed -    
Visibility 7.6 miles    
Events Rain , Thunderstorm    
T = Trace of Precipitation, MM = Missing Value Source: Averaged Metar Reports

Daily Weather History Graph

Daily Weather History Graph

Search for Another Location

Airport or City:

Trip Planner

Search our weather history database for the weather conditions in past years. The results will help you decide how hot, cold, wet, or windy it might be!

Date:

Astronomy

Dec. 10, 2012 Rise Set
Actual Time 5:08 AM AWST 6:19 PM AWST
Civil Twilight 4:44 AM AWST 6:43 PM AWST
Nautical Twilight 4:15 AM AWST 7:12 PM AWST
Astronomical Twilight 3:46 AM AWST 7:41 PM AWST
Moon 1:58 AM AWST (12/10) 3:03 PM AWST (12/10)
Length of Visible Light 13h 59m
Length of Day
13h 10m
Waning Crescent, 15% of the Moon is Illuminated
Dec 10
Waning Crescent
Dec 13
New
Dec 20
First Quarter
Dec 28
Full
Jan 5
Last Quarter

Hourly Weather History & Observations

Time (AWST) Temp. Heat Index Dew Point Humidity Pressure Visibility Wind Dir Wind Speed Gust Speed Precip Events Conditions
12:00 AM 85 °F - 80 °F 82% 29.78 in - NE 8.1 mph - -  
12:00 AM 86.0 °F 101.9 °F 80.6 °F 84% 29.77 in 6.2 mi NNE 8.1 mph - N/A   Drizzle
12:30 AM 86.0 °F 101.9 °F 80.6 °F 84% 29.74 in 6.2 mi NE 5.8 mph - N/A   Mostly Cloudy
1:00 AM 86.0 °F 101.9 °F 80.6 °F 84% 29.74 in 6.2 mi NNE 2.3 mph - N/A   Unknown
1:30 AM 86.0 °F 101.9 °F 80.6 °F 84% 29.71 in 6.2 mi Calm Calm - N/A   Unknown
2:00 AM 85 °F - 80 °F 81% 29.74 in - Calm Calm - -  
2:00 AM 86.0 °F 101.9 °F 80.6 °F 84% 29.74 in 6.2 mi Calm Calm - N/A   Unknown
2:30 AM 84.2 °F 98.3 °F 80.6 °F 89% 29.74 in 6.2 mi Calm Calm - N/A   Unknown
3:00 AM 85 °F - 80 °F 81% 29.73 in - NNE 2.3 mph - -  
3:00 AM 86.0 °F 101.9 °F 80.6 °F 84% 29.71 in 6.2 mi NNE 2.3 mph - N/A   Unknown
3:30 AM 86.0 °F 101.9 °F 80.6 °F 84% 29.74 in 6.2 mi North 5.8 mph - N/A   Unknown
4:00 AM 86.0 °F 101.9 °F 80.6 °F 84% 29.74 in 6.2 mi NNW 8.1 mph - N/A   Unknown
4:30 AM 86.0 °F 101.9 °F 80.6 °F 84% 29.74 in 6.2 mi NW 9.2 mph - N/A   Unknown
5:00 AM 86 °F - 81 °F 82% 29.78 in - NNW 9.2 mph - -  
5:00 AM 86.0 °F 101.9 °F 80.6 °F 84% 29.77 in 6.2 mi NNW 9.2 mph - N/A   Unknown
5:21 AM 86.0 °F 101.9 °F 80.6 °F 84% 29.83 in 6.2 mi East 6.9 mph - N/A Rain Light Rain Showers
5:30 AM 86.0 °F 101.9 °F 80.6 °F 84% 29.83 in 6.2 mi ESE 4.6 mph - N/A Rain Light Rain Showers
6:00 AM 85 °F - 82 °F 88% 29.84 in 12 mi NE 3.5 mph - - Thunderstorm Thunderstorm
6:00 AM 84.2 °F 100.6 °F 82.4 °F 94% 29.83 in 6.2 mi NE 3.5 mph - N/A   Partly Cloudy
6:30 AM 84.2 °F 98.3 °F 80.6 °F 89% 29.83 in 6.2 mi WNW 3.5 mph - N/A Rain Light Rain Showers
7:00 AM 82.4 °F 89.5 °F 75.2 °F 79% 29.86 in 6.2 mi NE 16.1 mph - N/A Thunderstorm Scattered Clouds
7:13 AM 80.6 °F 84.6 °F 71.6 °F 74% 29.86 in 6.2 mi NNE 13.8 mph - N/A Thunderstorm Thunderstorm
7:30 AM 78.8 °F - 71.6 °F 78% 29.89 in 6.2 mi ENE 6.9 mph - N/A Thunderstorm Partly Cloudy
8:00 AM 78 °F - 73 °F 80% 29.93 in - East 4.6 mph - -  
8:00 AM 78.8 °F - 73.4 °F 83% 29.92 in 6.2 mi East 4.6 mph - N/A Rain Light Rain Showers
8:30 AM 78.8 °F - 75.2 °F 89% 29.92 in 6.2 mi South 6.9 mph - N/A Rain Light Rain Showers
9:00 AM 79 °F - 75 °F 85% 29.92 in 9 mi West 6.9 mph - - Rain , Thunderstorm Thunderstorms and Rain
9:00 AM 78.8 °F - 75.2 °F 89% 29.92 in 6.2 mi West 6.9 mph - N/A Rain Rain
9:30 AM 78.8 °F - 75.2 °F 89% 29.92 in 6.2 mi West 5.8 mph - N/A Rain , Thunderstorm Light Rain
10:00 AM 78.8 °F - 77.0 °F 94% 29.89 in 6.2 mi North 4.6 mph - N/A Rain Light Rain
10:30 AM 80.6 °F 86.2 °F 75.2 °F 84% 29.89 in 6.2 mi West 1.2 mph - N/A Rain Light Rain Showers
11:00 AM 81 °F - 77 °F 84% 29.88 in - NW 4.6 mph - -  
11:00 AM 80.6 °F 87.1 °F 77.0 °F 89% 29.86 in 6.2 mi NW 4.6 mph - N/A   Mostly Cloudy
11:30 AM 82.4 °F 90.9 °F 77.0 °F 84% 29.83 in 6.2 mi NW 9.2 mph - N/A   Mostly Cloudy
12:00 PM 83 °F - 77 °F 77% 29.83 in 16 mi NW 10.4 mph - - Rain Light Rain
12:00 PM 82.4 °F 90.9 °F 77.0 °F 84% 29.83 in 6.2 mi NW 10.4 mph - N/A Rain Light Rain
12:30 PM 84.2 °F 92.3 °F 75.2 °F 74% 29.80 in 6.2 mi NW 8.1 mph - N/A Rain Light Rain
1:00 PM 86.0 °F 93.4 °F 73.4 °F 66% 29.77 in - North 8.1 mph - N/A   Clear
1:30 PM 87.8 °F 93.8 °F 71.6 °F 58% 29.77 in - NNW 8.1 mph - N/A   Clear
2:00 PM 89 °F - 72 °F 48% 29.76 in - North 4.6 mph - -  
2:00 PM 89.6 °F 96.2 °F 71.6 °F 55% 29.74 in - North 4.6 mph - N/A   Clear
2:30 PM 89.6 °F 96.2 °F 71.6 °F 55% 29.74 in - ENE 4.6 mph - N/A   Clear
3:00 PM 90 °F - 73 °F 48% 29.74 in 19 mi NNE 6.9 mph - -   Partly Cloudy
3:00 PM 89.6 °F 98.2 °F 73.4 °F 59% 29.74 in - NNE 6.9 mph - N/A   Clear
3:30 PM 89.6 °F 98.2 °F 73.4 °F 59% 29.71 in - NNE 8.1 mph - N/A   Clear
4:00 PM 89.6 °F 99.8 °F 75.2 °F 62% 29.71 in - NNE 9.2 mph - N/A   Clear
4:30 PM 89.6 °F 98.2 °F 73.4 °F 59% 29.74 in - East 5.8 mph - N/A   Clear
5:00 PM 90 °F - 74 °F 50% 29.75 in - South 3.5 mph - -  
5:00 PM 89.6 °F 98.2 °F 73.4 °F 59% 29.74 in - South 3.5 mph - N/A   Clear
5:30 PM 87.8 °F 99.7 °F 77.0 °F 70% 29.74 in - SW 5.8 mph - N/A   Clear
6:00 PM 87 °F - 77 °F 65% 29.77 in 19 mi SW 3.5 mph - -   Partly Cloudy
6:00 PM 87.8 °F 99.7 °F 77.0 °F 70% 29.77 in - SW 3.5 mph - N/A   Clear
6:30 PM 86.0 °F 96.9 °F 77.0 °F 74% 29.77 in 6.2 mi SW 1.2 mph - N/A   Unknown
7:00 PM 86.0 °F 96.9 °F 77.0 °F 74% 29.77 in - SW 4.6 mph - N/A   Clear
7:30 PM 86.0 °F 96.9 °F 77.0 °F 74% 29.77 in - SSW 4.6 mph - N/A   Clear
8:00 PM 86 °F - 78 °F 70% 29.81 in - SSW 3.5 mph - -  
8:00 PM 86.0 °F 96.9 °F 77.0 °F 74% 29.80 in - SSW 3.5 mph - N/A   Clear
8:30 PM 86.0 °F 96.9 °F 77.0 °F 74% 29.80 in - SSW 4.6 mph - N/A   Clear
9:00 PM 85 °F - 79 °F 76% 29.81 in 19 mi West 3.5 mph - -   Partly Cloudy
9:00 PM 86.0 °F 99.3 °F 78.8 °F 79% 29.80 in - West 3.5 mph - N/A   Clear
9:30 PM 84.2 °F 96.1 °F 78.8 °F 84% 29.80 in 6.2 mi WNW 4.6 mph - N/A   Unknown
10:00 PM 84.2 °F 96.1 °F 78.8 °F 84% 29.80 in 6.2 mi WNW 4.6 mph - N/A   Unknown
10:30 PM 84.2 °F 96.1 °F 78.8 °F 84% 29.80 in 6.2 mi NW 6.9 mph - N/A   Unknown
11:00 PM 85 °F - 78 °F 75% 29.80 in - WNW 6.9 mph - -  
11:00 PM 86.0 °F 99.3 °F 78.8 °F 79% 29.80 in 6.2 mi WNW 6.9 mph - N/A   Unknown
11:30 PM 84.2 °F 96.1 °F 78.8 °F 84% 29.80 in 6.2 mi WNW 8.1 mph - N/A   Unknown